Location: Béaulencourt
(50.0796°N, 2.8795°E)
Time: 12:51:33
(UTC+00:00)

Dummy Sat-02 - Pass Details

Date: 21 April 2026
Orbit: 472 x 483 km, 86.3° (Epoch: 12 May)

Event Time Altitude Azimuth Distance (km) Brightness Sun altitude
Exits shadow 20:26:23 10° 185° (S) 1,650 6.9 -14.0°
Maximum altitude 20:29:59 84° 272° (W) 488 4.5 -14.4°
Drops below altitude 10° 20:33:36 10° 3° (N) 1,660 7.8 -14.8°
Sets 20:35:42 0° 4° (N) 2,542 8.8 -15.1°
